CAPE
0 0 0 0 0 0 0 0 21 85 320 324 673 773 661 920 1217 907 1093 1046 1237 757 205 0 0 15 61 233 787 805 647 360 125 79 41 3 24 158 241 245 292 531 605 566 703 629 470 346 323
0 0 0 0 0 0 6 0 40 148 104 343 654 692 734 856 951 1250 1084 1238 822 1205 767 46 0 0 22 34 286 568 644 452 298 266 170 79 76 145 236 222 186 277 552 870 910 824 599 353 223
0 0 0 0 0 0 0 0 0 67 72 248 903 823 709 888 1164 1382 1220 1403 1218 1488 1429 406 47 2 0 0 2 54 214 391 512 485 353 226 107 139 246 299 423 657 935 1099 1065 963 807 598 378
0 0 0 0 0 77 53 3 0 63 104 403 738 1059 1405 1398 995 1213 1696 1617 1533 1325 964 741 656 150 38 19 64 66 51 110 185 214 223 207 206 231 283 346 469 549 605 700 806 878 946 966 890
0 0 0 0 0 138 44 3 11 46 18 100 454 846 1057 1238 1628 1512 1800 1723 1636 1471 1038 1082 889 753 445 201 162 105 99 102 125 111 147 167 190 238 242 228 184 174 227 281 360 479 593 663 658
0 0 0 0 0 0 177 125 231 39 117 284 507 943 1292 1482 1875 1812 1925 1714 1691 1058 768 853 926 832 791 778 618 438 338 306 222 160 125 74 41 16 22 51 78 104 170 246 344 383 408 404 352
0 0 0 0 0 0 1 60 68 11 0 7 199 791 1523 1384 1331 1899 1860 1526 1199 838 839 721 654 896 998 1047 1033 993 924 872 809 756 692 601 490 480 375 346 244 245 242 262 360 371 304 219 150
0 0 0 0 0 8 4 103 132 2 139 103 363 349 1066 1302 1010 725 488 365 345 434 613 993 1141 1352 900 722 452 312 91 45 92 211 94 67 201 468 706 1068 1139 1100 892 918 917 659 410 462 428
0 0 0 0 0 1 1 89 274 36 58 158 775 563 1179 973 634 382 236 111 164 363 589 680 1269 1552 852 338 80 0 0 23 62 138 1 0 65 249 805 473 604 451 434 497 542 311 475 497 628
0 0 0 0 0 61 152 79 10 141 22 188 790 808 712 569 278 142 188 244 57 0 0 0 0 0 0 0 0 138 0 0 0 0 0 0 0 0 0 0 0 61 124 164 124 273 502 735 956
0 0 0 0 6 52 28 28 0 0 3 78 386 543 544 400 162 106 112 11 0 0 0 0 0 0 0 0 0 0 0 0 0 0 0 0 0 0 0 0 0 0 0 0 0 0 45 71 19
0 0 0 0 0 0 1 11 0 0 24 18 395 357 428 328 53 12 0 0 0 0 0 0 0 0 0 0 0 0 0 0 0 0 0 0 0 0 0 0 0 0 0 0 0 0 0 0 0
0 0 0 0 0 0 12 0 0 5 0 184 268 270 167 60 0 0 0 0 0 0 0 0 0 0 0 0 0 0 0 0 0 0 0 0 0 0 0 0 0 0 0 0 0 0 0 0 0
0 0 0 0 0 0 0 0 0 7 0 0 0 0 0 0 0 0 0 0 0 0 0 0 0 2 0 0 0 0 0 0 0 0 0 0 0 0 0 0 0 0 0 0 0 0 0 0 0
0 0 0 0 0 0 0 0 0 0 0 0 0 0 0 0 0 0 0 0 0 0 0 0 0 0 18 11 5 0 0 0 0 0 0 0 0 0 0 0 0 0 0 0 0 0 0 0 0
0 0 0 0 0 0 0 0 0 0 0 0 0 0 0 0 0 0 0 0 0 0 0 1 0 33 57 71 32 19 3 0 0 0 0 0 0 0 0 0 0 0 0 3 0 1 5 0 0
0 0 0 0 0 0 0 0 0 0 0 0 0 0 0 0 0 0 0 0 0 3 2 6 12 2 57 158 167 106 22 14 11 0 18 40 1 0 0 0 0 0 3 15 20 2 10 6 0
0 0 0 0 0 0 0 0 0 0 0 0 0 0 0 0 0 0 0 0 9 18 46 52 87 158 280 351 267 198 194 27 9 0 0 0 3 3 6 0 0 11 4 0 0 0 1 10 9
0 0 0 0 0 0 0 0 0 0 0 0 0 2 0 1 0 0 0 15 5 26 69 119 186 434 590 705 595 283 215 101 49 23 0 16 0 0 0 0 0 0 0 0 0 0 0 1 17
0 0 0 0 1 0 0 0 0 0 5 0 0 0 1 0 1 0 42 96 123 53 48 181 292 676 952 776 470 190 191 121 0 0 0 0 0 0 0 0 0 0 0 0 0 2 0 0 2
0 0 0 0 0 0 0 0 0 0 0 8 0 0 9 6 10 22 176 222 191 200 242 478 780 651 461 142 3 42 0 0 0 0 0 0 0 0 0 0 0 0 0 0 0 0 0 0 0
0 0 0 0 0 0 0 0 0 0 0 1 1 0 0 25 46 102 173 359 264 362 518 563 468 180 1 0 0 0 0 0 0 0 0 0 0 0 0 0 0 0 0 0 1 3 2 1 1
0 0 0 0 0 0 0 0 0 0 0 11 17 0 0 11 62 105 146 381 485 324 454 345 148 3 0 0 0 0 0 0 0 0 0 0 0 0 0 0 0 0 0 1 2 4 1 0 3
0 0 0 0 0 0 0 0 0 0 9 13 17 0 0 2 36 87 313 248 232 231 247 148 37 2 0 0 0 0 0 0 0 0 0 0 0 0 0 0 0 0 3 3 5 6 3 1 1
0 0 0 0 0 0 0 0 0 0 0 0 0 0 0 0 0 27 371 190 120 57 16 0 0 0 0 0 0 0 0 0 0 0 0 0 0 0 2 1 1 1 2 5 2 3 3 3 1
0 0 0 0 0 9 0 0 0 0 0 2 0 0 0 5 15 35 342 203 59 7 0 0 0 0 0 0 0 0 0 0 0 0 0 2 2 3 2 4 4 2 2 2 1 4 8 9 1
0 0 0 0 0 0 0 26 71 12 0 0 0 0 46 34 42 64 87 38 5 0 0 0 0 0 0 0 0 0 0 0 0 0 1 1 4 4 5 0 6 3 2 3 4 1 2 2 3
0 0 10 4 0 0 0 9 49 1 0 0 0 1 24 4 26 102 86 7 0 0 0 0 0 0 0 0 0 0 0 0 0 3 1 0 2 0 0 4 4 3 3 3 4 3 3 2 2
0 0 0 0 23 4 0 117 20 23 0 0 20 12 0 20 30 19 3 0 0 0 0 0 0 0 0 0 0 0 0 4 3 1 3 1 0 1 6 5 3 2 2 3 3 2 2 2 2
0 0 5 1 0 41 134 21 55 9 2 1 0 78 4 0 49 64 0 0 0 0 0 0 0 0 0 0 0 2 0 0 0 0 0 0 2 5 1 2 2 2 2 2 2 2 2 2 2
CIN
-0 -0 -0 -0 -0 -0 -0 -0 -26 -17 -82 -73 -102 -107 -133 -79 -18 -24 -1 -6 -15 -90 -214 -0 -0 -192 -337 -271 -162 -154 -172 -211 -282 -310 -345 -59 -324 -243 -208 -198 -182 -136 -121 -123 -99 -100 -129 -144 -148
-0 -0 -0 -0 -0 -0 -20 -0 -9 -40 -62 -42 -51 -110 -102 -64 -43 -15 -6 -8 -7 -26 -99 -322 -0 -0 -372 -369 -254 -186 -165 -201 -226 -235 -271 -300 -288 -254 -209 -195 -205 -180 -124 -81 -77 -90 -119 -147 -165
-0 -0 -0 -0 -0 -0 -0 -0 -0 -47 -20 -31 -41 -63 -75 -12 -10 -4 -13 -1 -13 -8 -73 -239 -358 -137 -0 -0 -218 -321 -255 -219 -197 -194 -203 -228 -261 -241 -209 -191 -151 -109 -72 -52 -57 -73 -93 -118 -149
-0 -0 -0 -0 -0 -47 -172 -186 -1 -6 -13 -17 -64 -65 -38 -11 -16 -6 -10 -11 -12 -17 -128 -198 -196 -304 -370 -384 -357 -340 -319 -279 -252 -231 -214 -210 -204 -200 -189 -176 -153 -136 -129 -113 -98 -83 -71 -67 -76
-0 -0 -0 -0 -0 -92 -279 -205 -123 -14 -4 -11 -65 -52 -59 -31 -16 -5 -13 -13 -13 -11 -112 -156 -178 -179 -226 -279 -290 -307 -312 -294 -276 -277 -239 -222 -216 -208 -202 -201 -215 -211 -197 -178 -160 -134 -117 -109 -109
-0 -0 -0 -0 -0 -0 -38 -30 -26 -51 -101 -13 -47 -53 -35 -10 -3 -8 -19 -6 -8 -43 -132 -162 -183 -185 -180 -170 -186 -216 -234 -237 -256 -256 -251 -260 -271 -173 -281 -268 -246 -222 -197 -169 -145 -142 -136 -144 -150
-0 -0 -0 -0 -0 -0 -3 -14 -117 -166 -15 -13 -59 -42 -4 -1 -22 -4 -8 -6 -4 -18 -115 -150 -178 -177 -166 -150 -146 -141 -143 -134 -132 -124 -129 -130 -123 -130 -144 -136 -159 -174 -168 -152 -130 -126 -146 -170 -178
-0 -0 -0 -0 -0 -4 -6 -17 -139 -108 -125 -57 -25 -48 -23 -26 -36 -39 -45 -21 -5 -3 -21 -47 -87 -102 -164 -166 -204 -220 -265 -293 -251 -211 -216 -179 -139 -115 -71 -32 -50 -40 -53 -52 -65 -85 -114 -108 -118
-0 -0 -0 -0 -0 -1 -2 -15 -57 -128 -9 -4 -11 -71 -43 -46 -47 -42 -15 -27 -5 -3 -9 -12 -14 -22 -19 -149 -223 -0 -0 -271 -233 -199 -11 -0 -99 -41 -26 -40 -25 -43 -41 -48 -62 -78 -74 -70 -76
-0 -0 -0 -0 -10 -8 -14 -6 -54 -16 -27 -29 -68 -63 -55 -44 -29 -7 -7 -8 -10 -0 -0 -0 -0 -0 -0 -0 -0 -147 -0 -0 -0 -0 -0 -0 -0 -0 -0 -0 -0 -100 -84 -57 -50 -29 -29 -38 -46
-0 -0 -0 -0 -25 -7 -193 -7 -0 -0 -4 -24 -36 -74 -58 -35 -21 -4 -6 -7 -0 -0 -0 -0 -0 -0 -0 -0 -0 -0 -0 -0 -0 -0 -0 -0 -0 -0 -0 -0 -0 -0 -0 -0 -0 -0 -3 -2 -3
-0 -0 -0 -0 -0 -0 -6 -6 -0 -0 -25 -32 -24 -79 -46 -25 -34 -2 -0 -0 -0 -0 -0 -0 -0 -0 -0 -0 -0 -0 -0 -0 -0 -0 -0 -0 -0 -0 -0 -0 -0 -0 -0 -0 -0 -0 -0 -0 -0
-0 -0 -0 -0 -0 -0 -3 -1 -0 -2 -4 -7 -18 -70 -68 -58 -0 -0 -0 -0 -0 -0 -0 -0 -0 -0 -0 -0 -0 -0 -0 -0 -0 -0 -0 -0 -0 -0 -0 -0 -0 -0 -0 -0 -0 -0 -0 -0 -0
-0 -0 -0 -0 -0 -0 -0 -0 -0 -6 -0 -0 -0 -0 -0 -0 -0 -0 -0 -0 -0 -0 -0 -0 -0 -115 -0 -0 -0 -0 -0 -0 -0 -0 -0 -0 -0 -0 -0 -0 -0 -0 -0 -0 -0 -0 -0 -0 -0
-0 -0 -0 -0 -0 -0 -0 -0 -0 -0 -0 -0 -0 -0 -0 -0 -0 -0 -0 -0 -0 -0 -0 -0 -0 -0 -370 -381 -345 -0 -0 -0 -0 -0 -0 -0 -0 -0 -0 -0 -0 -0 -0 -0 -0 -0 -0 -0 -0
-0 -0 -0 -0 -0 -0 -0 -0 -0 -0 -0 -0 -0 -0 -0 -0 -0 -0 -0 -0 -0 -0 -0 -61 -0 -345 -283 -254 -301 -310 -89 -0 -0 -0 -0 -0 -0 -0 -0 -0 -0 -0 -0 -3 -0 -0 -1 -0 -0
-0 -0 -0 -0 -0 -0 -0 -0 -0 -0 -0 -0 -0 -0 -0 -0 -0 -0 -0 -0 -0 -104 -130 -264 -148 -115 -210 -146 -152 -161 -227 -189 -143 -0 -54 -39 -4 -0 -0 -0 -0 -0 -12 -3 -1 -1 -3 -4 -0
-0 -0 -0 -0 -0 -0 -0 -0 -0 -0 -0 -0 -0 -0 -0 -0 -0 -0 -0 -0 -206 -221 -192 -200 -174 -153 -116 -111 -99 -102 -57 -117 -22 -0 -0 -0 -12 -21 -32 -0 -0 -3 -3 -1 -0 -0 -1 -7 -8
-0 -0 -0 -0 -0 -0 -0 -0 -0 -0 -0 -0 -0 -1 -0 -9 -0 -0 -0 -161 -173 -178 -157 -143 -117 -81 -93 -83 -67 -82 -65 -98 -86 -99 -0 -70 -0 -0 -0 -0 -0 -0 -0 -0 -0 -0 -0 -0 -0
-0 -0 -0 -0 -9 -0 -0 -0 -0 -0 -6 -1 -0 -0 -3 -0 -7 -1 -62 -74 -92 -108 -131 -105 -89 -45 -64 -85 -113 -105 -123 -128 -0 -0 -0 -0 -0 -0 -0 -0 -0 -0 -0 -0 -1 -5 -0 -4 -43
-0 -0 -0 -0 -0 -0 -0 -0 -0 -0 -0 -7 -0 -0 -3 -8 -7 -14 -33 -60 -75 -91 -84 -29 -59 -118 -153 -229 -29 -80 -0 -0 -0 -0 -0 -0 -0 -0 -0 -0 -0 -0 -0 -0 -0 -0 -0 -0 -0
-0 -0 -0 -0 -0 -0 -0 -0 -0 -0 -0 -6 -9 -0 -0 -2 -8 -5 -21 -49 -68 -57 -94 -135 -205 -224 -11 -0 -0 -0 -0 -0 -0 -0 -0 -0 -0 -0 -0 -0 -0 -0 -0 -0 -0 -2 -3 -1 -0
-0 -0 -0 -0 -0 -0 -0 -0 -0 -0 -0 -5 -2 -0 -0 -1 -4 -4 -1 -20 -63 -143 -169 -227 -276 -135 -0 -0 -0 -0 -0 -0 -0 -0 -0 -0 -0 -0 -0 -0 -0 -0 -0 -4 -2 -2 -1 -0 -0
-0 -0 -0 -0 -0 -0 -0 -0 -0 -0 -26 -6 -5 -0 -0 -20 -4 -3 -69 -119 -140 -171 -198 -220 -252 -96 -0 -0 -0 -0 -0 -0 -0 -0 -0 -0 -0 -0 -0 -0 -0 -1 -1 -0 -0 -0 -0 -0 -0
-0 -0 -0 -0 -0 -0 -0 -0 -0 -0 -0 -21 -0 -0 -0 -0 -0 -6 -66 -109 -108 -164 -85 -0 -0 -0 -0 -0 -0 -0 -0 -0 -0 -0 -0 -0 -0 -0 -2 -1 -1 -1 -0 -0 -0 -0 -0 -0 -0
-0 -0 -0 -0 -0 -11 -0 -0 -0 -0 -0 -91 -0 -0 -0 -65 -64 -6 -22 -68 -145 -163 -0 -0 -0 -0 -0 -0 -0 -0 -0 -0 -0 -0 -0 -0 -0 -1 -3 -0 -0 -1 -0 -0 -0 -0 -0 -0 -0
-0 -0 -0 -0 -0 -0 -3 -15 -46 -14 -0 -0 -0 -0 -76 -61 -61 -95 -119 -133 -137 -0 -0 -0 -0 -0 -0 -0 -0 -0 -0 -0 -0 -1 -2 -0 -0 -0 -0 -1 -0 -0 -0 -0 -0 -0 -0 -0 -0
-0 -0 -11 -7 -0 -0 -0 -21 -50 -34 -0 -0 -0 -16 -85 -44 -54 -109 -156 -129 -0 -0 -0 -0 -0 -0 -0 -0 -0 -0 -0 -0 -3 -1 -1 -0 -0 -0 -1 -0 -0 -0 -0 -0 -0 -0 -0 -0 -0
-0 -0 -0 -0 -5 -3 -0 -7 -71 -120 -0 -7 -2 -6 -0 -21 -134 -128 -116 -0 -0 -0 -0 -0 -0 -0 -0 -0 -0 -0 -1 -1 -0 -1 -0 -0 -0 -0 -0 -0 -0 -0 -0 -0 -0 -0 -0 -0 -0
-0 -1 -29 -1 -0 -17 -15 -37 -149 -44 -5 -1 -0 -16 -32 -0 -79 -103 -0 -0 -0 -0 -0 -0 -0 -0 -0 -0 -0 -0 -0 -1 -0 -1 -0 -0 -0 -0 -0 -0 -0 -0 -0 -0 -0 -0 -0 -0 -0
Wind_Speed
21 20 18 18 18 17 12 13 12 18 20 19 20 19 20 20 18 16 18 17 15 12 11 11 11 11 12 13 12 12 11 12 12 13 14 14 13 14 14 15 15 16 17 19 20 20 20 21 21
20 21 20 19 21 24 17 20 17 17 17 18 20 21 21 23 21 19 17 14 14 12 10 11 11 12 12 12 13 13 13 13 13 14 14 14 14 14 15 16 17 18 19 21 21 22 23 23 23
19 20 20 7 9 22 10 24 18 14 15 15 18 19 18 20 18 17 15 13 11 11 11 11 11 12 12 12 13 13 13 14 14 15 15 15 15 16 16 17 18 20 21 22 23 23 24 25 25
19 20 22 20 23 11 13 24 25 16 16 16 17 20 18 18 18 17 18 14 12 13 12 12 12 12 13 13 13 14 15 15 15 16 17 17 17 17 18 18 19 20 21 22 23 24 25 26 27
24 22 26 27 26 11 17 20 14 17 15 16 21 19 19 18 18 17 16 15 13 13 14 13 14 14 14 14 14 15 15 16 16 17 18 18 19 19 19 19 19 19 20 21 22 23 24 25 25
26 25 26 29 25 13 9 10 13 13 13 19 19 18 18 17 17 17 18 15 13 14 15 14 14 15 15 15 15 15 16 17 17 18 19 20 20 19 18 19 19 20 21 23 24 24 25 26 26
27 27 29 30 27 12 15 15 14 13 17 12 13 21 17 16 16 16 16 14 14 14 15 14 14 15 16 16 17 17 17 18 18 19 19 19 18 16 17 18 17 20 22 23 24 25 27 27 27
26 27 29 29 28 10 8 12 15 14 8 19 12 15 14 15 16 15 15 14 14 14 14 13 14 15 16 17 17 17 18 18 18 18 20 20 19 17 16 19 19 20 22 24 26 29 29 27 27
24 25 26 25 24 14 4 4 13 18 13 17 20 16 16 16 15 15 14 14 14 15 16 16 15 14 15 17 18 16 17 18 19 20 25 26 23 24 18 22 22 23 23 24 27 29 28 28 30
25 24 24 25 21 7 8 10 8 9 12 13 15 16 16 14 13 13 12 13 14 15 16 16 16 16 16 18 17 15 19 18 21 24 24 26 24 25 27 27 24 22 25 25 26 28 27 29 30
25 25 23 21 15 13 9 10 10 8 8 7 12 12 12 12 11 11 13 13 13 14 15 17 17 20 19 20 19 20 21 20 20 24 26 27 25 28 28 27 31 31 31 28 33 33 29 34 35
24 24 25 24 22 22 8 9 9 11 14 9 12 11 11 10 10 10 12 12 12 14 15 16 17 18 21 21 23 21 22 22 22 20 25 27 28 27 29 28 29 29 29 32 31 34 38 40 41
27 27 21 25 19 24 8 9 10 8 13 12 11 10 10 8 10 12 13 13 13 12 13 15 17 18 20 21 22 22 24 23 22 22 23 26 28 27 30 30 32 32 31 32 32 35 35 36 37
15 22 18 15 8 7 6 7 5 7 8 9 9 7 8 8 10 10 10 11 11 11 12 13 15 16 19 20 21 22 22 24 25 25 25 23 25 27 29 30 32 32 35 35 36 39 37 38 37
25 17 2 6 4 5 14 2 3 8 6 4 6 6 6 7 8 9 9 8 8 9 11 12 12 14 17 18 19 21 21 25 26 27 27 26 26 26 27 28 34 34 36 38 40 38 42 39 39
14 2 2 2 3 5 4 2 2 4 4 3 3 3 4 5 5 7 7 7 7 7 9 10 17 12 14 18 20 22 22 23 24 22 25 25 25 28 30 32 34 37 41 40 43 42 41 43 42
1 6 2 2 7 2 1 1 13 4 1 1 1 1 2 2 2 5 5 5 5 7 7 8 11 15 19 20 22 22 21 20 20 22 24 28 30 33 33 35 38 40 44 42 41 44 44 47 47
0 4 6 4 6 3 3 3 7 4 1 1 2 2 3 2 2 0 1 2 4 6 9 11 14 17 19 21 20 19 21 25 29 32 34 36 37 38 39 40 41 42 43 44 46 49 48 49 49
32 15 9 9 5 5 3 6 8 3 3 3 3 3 3 5 4 4 2 2 5 6 9 11 14 15 18 21 25 26 28 32 32 33 35 36 37 40 41 42 45 46 47 48 48 51 52 48 45
10 26 22 17 16 4 7 10 8 8 8 6 5 5 4 4 5 4 4 3 4 8 11 13 13 16 21 25 28 27 28 30 33 33 36 40 41 45 47 48 48 48 49 47 46 44 46 45 44
18 17 17 18 10 11 15 23 17 10 10 10 7 6 6 5 5 5 4 5 4 8 12 11 17 20 23 27 27 29 32 33 35 38 40 41 46 47 49 47 44 43 43 44 45 45 46 49 45
17 16 16 18 17 19 8 21 14 10 11 11 9 6 7 6 4 4 5 5 5 9 11 14 17 21 24 27 29 32 34 37 38 39 41 45 46 45 42 43 44 44 43 44 43 42 43 43 44
15 20 20 15 21 26 21 22 20 20 18 12 9 7 7 7 6 6 6 7 5 9 12 16 19 22 25 28 30 32 36 37 39 42 45 45 42 43 44 42 42 42 41 42 42 41 38 37 37
16 17 19 18 22 24 18 20 20 20 26 5 5 5 7 7 7 11 7 7 8 10 13 16 19 22 25 29 31 34 38 40 43 44 46 44 45 44 42 43 42 41 41 40 39 36 35 33 30
12 16 20 19 18 21 17 16 12 16 16 14 12 9 11 13 13 13 6 7 8 12 15 16 22 26 29 32 34 37 39 42 43 45 45 48 46 43 42 43 42 41 39 37 36 33 32 31 28
11 14 18 22 24 22 22 16 16 13 13 13 14 15 14 14 14 6 6 8 11 16 20 23 27 30 32 34 37 38 39 41 43 44 45 43 42 42 43 41 40 39 36 34 33 31 33 31 27
15 14 14 26 30 30 22 16 14 13 13 15 14 12 11 10 12 11 12 13 15 19 22 25 29 31 34 37 38 40 41 43 44 44 42 41 41 42 42 41 38 38 36 36 32 29 29 28 25
15 21 17 18 25 28 26 24 20 16 24 14 11 9 9 7 8 10 12 15 18 22 24 27 31 34 36 39 40 41 42 43 42 42 42 42 41 42 41 39 39 38 38 38 34 27 25 22 21
16 19 24 25 19 20 25 20 15 9 6 9 10 9 8 9 10 11 13 15 21 24 28 31 33 35 38 39 41 41 42 41 41 41 41 41 39 39 38 39 41 43 38 37 33 25 20 20 17
17 21 16 22 24 26 23 23 26 24 13 11 15 16 9 4 5 9 13 16 23 27 30 32 34 36 39 40 39 40 39 40 39 39 38 37 33 30 32 37 39 38 34 32 27 20 22 20 14
Wind_Direction
246 225 210 210 193 158 144 126 109 40 29 23 17 28 24 5 7 33 67 66 43 17 21 360 2 359 356 2 0 358 350 352 355 357 359 1 4 1 356 351 347 343 334 331 330 330 331 329 329
249 234 210 215 225 237 297 298 24 23 30 34 55 40 29 30 36 53 56 33 27 35 15 1 359 360 356 358 358 357 355 353 348 348 346 346 349 350 347 342 338 332 326 323 321 319 317 318 318
239 225 227 328 163 217 329 250 312 356 35 39 35 22 17 33 30 49 51 22 16 23 1 359 357 353 351 356 353 354 354 354 352 348 348 346 344 340 339 337 333 328 325 322 322 321 319 316 314
239 224 227 281 234 341 357 305 220 51 33 40 45 25 25 11 34 54 71 40 26 22 11 3 359 354 357 355 356 353 355 358 356 358 352 351 350 348 340 338 335 332 331 329 326 324 322 319 316
224 247 232 241 251 65 63 106 130 32 31 39 42 31 37 45 42 56 63 53 39 30 26 15 10 10 12 10 2 358 356 354 353 358 347 344 342 341 340 337 336 337 337 335 332 330 328 326 322
223 219 249 247 238 320 37 46 18 357 351 43 38 37 36 62 47 63 75 68 44 43 26 18 16 21 19 10 6 4 359 354 354 347 344 342 341 341 342 339 336 333 331 330 328 326 324 321 320
222 230 230 243 238 327 306 340 15 7 331 10 38 49 49 57 64 69 56 45 58 44 37 30 23 22 21 17 14 8 1 356 355 351 349 348 348 349 345 341 337 332 330 328 327 324 320 318 316
210 229 237 235 237 314 332 351 24 19 160 71 83 33 55 60 49 43 45 57 45 41 41 45 39 34 28 17 17 15 9 8 5 0 354 349 347 344 342 339 334 332 326 324 322 319 316 316 314
208 222 213 222 231 315 24 34 37 100 48 15 27 67 71 81 61 57 53 36 30 27 33 30 41 40 24 25 19 20 10 8 3 356 341 336 342 341 342 335 334 329 328 326 323 319 319 316 314
188 187 208 246 298 333 331 316 5 349 9 17 22 56 74 74 69 64 62 61 56 41 27 22 24 29 25 20 27 32 15 13 7 359 355 351 351 349 342 339 341 337 332 330 328 325 322 319 316
188 203 226 284 302 340 87 159 26 24 15 61 63 62 67 66 53 57 63 52 46 35 26 25 21 8 19 18 24 18 17 15 18 11 3 359 356 350 347 345 338 335 334 337 330 329 330 324 320
193 200 243 270 270 276 7 8 29 17 13 34 76 62 60 55 51 45 40 30 43 40 42 35 24 19 12 16 11 21 17 12 9 12 5 1 358 358 354 352 348 345 341 337 336 331 323 320 316
226 226 293 263 287 269 334 353 359 17 35 54 58 58 49 64 44 26 19 49 46 55 51 37 29 29 18 10 13 9 3 10 7 4 4 359 353 354 349 348 343 341 340 337 335 331 328 325 321
182 216 300 293 328 316 344 342 14 9 23 31 48 49 54 58 35 32 41 43 49 47 37 36 28 31 17 12 8 4 6 1 356 355 355 355 351 348 346 344 342 337 334 331 330 328 326 324 322
250 301 22 341 355 360 304 27 130 356 41 28 45 59 63 57 52 61 61 46 41 34 22 20 22 18 10 10 9 3 3 355 354 350 348 346 345 341 339 339 335 333 330 327 325 325 321 320 318
305 93 135 114 128 356 3 218 179 321 53 31 57 79 76 62 77 80 69 49 49 47 23 17 359 19 12 2 359 355 354 354 352 351 347 344 342 340 335 332 330 328 324 323 320 320 319 317 315
132 315 191 329 151 17 125 278 324 176 113 1 73 149 120 60 57 97 72 60 45 24 29 14 5 356 353 352 350 349 348 348 348 345 346 345 340 336 334 330 328 325 322 321 321 318 317 314 311
43 343 311 292 175 180 235 301 309 230 168 196 197 201 190 214 261 143 68 30 19 5 353 352 349 347 346 343 345 343 344 343 343 340 338 336 334 333 330 328 326 326 324 321 320 317 315 312 309
237 312 315 318 218 206 259 265 315 246 230 230 250 238 230 223 243 238 222 333 351 348 347 343 341 341 340 339 338 337 338 336 336 336 335 336 337 335 331 329 326 324 321 320 318 315 313 313 312
298 295 302 314 311 282 323 311 281 282 262 256 240 249 242 258 243 249 230 238 309 328 332 333 334 336 340 338 337 337 337 337 335 337 337 334 334 330 328 326 324 323 320 320 321 321 318 315 315
303 300 303 306 319 314 311 307 303 276 266 242 228 233 243 237 243 237 241 248 286 317 323 332 338 341 340 339 340 339 336 336 336 334 333 333 330 328 326 326 327 328 326 324 321 319 317 313 313
304 309 300 307 305 300 302 308 311 286 272 264 235 240 249 255 268 268 255 268 281 316 352 347 348 344 345 343 340 338 337 334 334 334 333 331 330 330 332 330 329 328 327 324 323 322 320 318 314
305 317 318 305 305 304 302 306 315 319 305 261 241 268 272 261 272 279 295 316 356 8 354 348 346 345 344 343 341 340 336 335 335 333 332 332 333 333 332 332 331 330 329 326 323 322 322 322 319
308 320 309 314 310 301 303 300 306 309 325 315 247 287 302 291 303 319 342 18 16 6 358 351 349 347 346 344 342 339 336 335 333 333 332 333 333 333 333 332 331 330 328 327 326 323 322 321 323
302 314 307 301 299 304 309 289 289 331 339 339 348 349 353 344 335 333 15 8 7 0 357 355 348 344 343 341 339 338 336 335 335 334 334 333 332 332 332 331 330 330 329 329 328 326 322 319 319
292 298 299 306 306 317 322 314 308 334 337 322 317 320 329 337 333 331 11 24 13 358 351 346 343 340 341 341 340 338 338 337 336 336 335 334 334 333 331 332 332 332 332 330 330 329 326 323 320
294 294 304 296 301 302 306 308 326 328 334 326 324 326 334 348 10 18 12 10 5 357 350 345 342 342 341 340 340 339 340 339 338 337 337 336 335 334 332 332 333 333 332 330 330 329 329 326 324
291 298 305 300 301 298 303 305 308 315 314 322 341 0 352 352 9 14 13 4 2 353 351 346 343 341 340 340 341 341 341 341 340 340 339 338 337 336 335 335 335 335 333 331 331 331 331 328 326
296 294 290 299 298 299 301 312 339 320 310 326 349 357 336 6 31 19 11 4 355 349 346 344 343 342 342 343 343 343 343 344 344 343 343 343 343 341 341 339 336 331 338 336 338 339 334 330 323
307 295 296 290 291 291 294 292 278 322 340 327 325 348 16 8 21 11 2 2 349 347 345 345 345 344 344 345 347 347 348 348 348 348 349 350 357 0 357 350 346 345 349 349 350 350 346 340 327